Rochester, NH

7:12 AM EDT on May 22, 2018 (GMT -0400)
Skyhaven

Weather History for KDAW - October, 2012

Change the Weather History Date:

Friday, October 19, 2012

  Actual Average (KPSM) Record (KPSM)
Temperature  
Mean Temperature 54 °F -  
Max Temperature 64 °F 56 °F 78 °F (2016)
Min Temperature 44 °F 39 °F 22 °F (1974)
Degree Days  
Heating Degree Days 11    
Growing Degree Days 4 (Base 50)    
Moisture  
Dew Point 55 °F    
Average Humidity 94    
Maximum Humidity 100    
Minimum Humidity 70    
Precipitation  
Precipitation 0.47 in - - ()
Sea Level Pressure  
Sea Level Pressure 29.95 in    
Wind  
Wind Speed 5 mph (ESE)    
Max Wind Speed 17 mph    
Max Gust Speed 29 mph    
Visibility 4 miles    
Events Fog , Rain    
Averages and records for this station are not official NWS values.
T = Trace of Precipitation, MM = Missing Value Source: NWS Daily Summary

Daily Weather History Graph

Daily Weather History Graph

Search for Another Location

Airport or City:

Astronomy

Oct. 19, 2012 Rise Set
Actual Time 7:02 AM EDT 5:53 PM EDT
Civil Twilight 6:34 AM EDT 6:22 PM EDT
Nautical Twilight 6:00 AM EDT 6:55 PM EDT
Astronomical Twilight 5:27 AM EDT 7:28 PM EDT
Moon 11:48 AM EDT (10/19) 9:22 PM EDT (10/19)
Length of Visible Light 11h 48m
Length of Day
10h 50m
Waxing Crescent, 23% of the Moon is Illuminated
Oct 19
Waxing Crescent
Oct 21
First Quarter
Oct 29
Full
Nov 6
Last Quarter
Nov 13
New

Hourly Weather History & Observations

Time (EDT) Temp. Windchill Dew Point Humidity Pressure Visibility Wind Dir Wind Speed Gust Speed Precip Events Conditions
12:22 AM 44.6 °F - 44.6 °F 100% 30.11 in 0.2 mi Calm Calm - N/A Fog Fog
12:29 AM 44.6 °F - 44.6 °F 100% 30.11 in 0.5 mi Calm Calm - N/A Fog Fog
12:46 AM 46.4 °F - 44.6 °F 93% 30.11 in 2.0 mi Calm Calm - N/A   Overcast
1:51 AM 46.0 °F 43.9 °F 44.1 °F 93% 30.09 in 4.0 mi NW 4.6 mph - N/A   Overcast
2:33 AM 46.4 °F - 44.6 °F 93% 30.11 in 7.0 mi Calm Calm - N/A   Overcast
2:51 AM 46.0 °F 43.1 °F 45.0 °F 96% 30.12 in 8.0 mi NW 5.8 mph - N/A   Mostly Cloudy
3:14 AM 46.4 °F 45.2 °F 46.4 °F 100% 30.10 in 7.0 mi NNE 3.5 mph - N/A   Scattered Clouds
3:28 AM 48.2 °F - 46.4 °F 93% 30.10 in 6.0 mi North 3.5 mph - N/A   Mostly Cloudy
3:51 AM 48.0 °F - 46.9 °F 96% 30.09 in 6.0 mi North 3.5 mph - N/A   Mostly Cloudy
4:51 AM 48.9 °F - 48.0 °F 97% 30.07 in 0.8 mi Calm Calm - N/A   Mist
5:51 AM 51.1 °F - 50.0 °F 96% 30.06 in 0.5 mi NNE 4.6 mph - N/A Fog Fog
6:51 AM 52.0 °F - 51.1 °F 97% 30.06 in 0.8 mi NNW 3.5 mph - N/A   Mist
7:08 AM 53.6 °F - 51.8 °F 94% 30.07 in 1.0 mi Calm Calm - 0.00 in   Mist
7:51 AM 53.1 °F - 52.0 °F 96% 30.06 in 1.2 mi NNE 3.5 mph - 0.00 in Rain Light Rain
8:12 AM 53.6 °F - 53.6 °F 100% 30.07 in 2.5 mi ENE 3.5 mph - N/A   Overcast
8:26 AM 53.6 °F - 53.6 °F 100% 30.07 in 4.0 mi ENE 5.8 mph - 0.00 in Rain Light Rain
8:51 AM 54.0 °F - 53.1 °F 97% 30.06 in 6.0 mi East 3.5 mph - 0.00 in   Overcast
9:36 AM 55.4 °F - 53.6 °F 94% 30.07 in 8.0 mi East 4.6 mph - N/A   Overcast
9:51 AM 55.0 °F - 54.0 °F 96% 30.06 in 5.0 mi Variable 4.6 mph - 0.00 in Rain Light Rain
9:59 AM 55.4 °F - 53.6 °F 94% 30.06 in 7.0 mi NE 3.5 mph - 0.00 in Rain Light Rain
10:51 AM 55.9 °F - 55.0 °F 97% 30.04 in 10.0 mi ENE 5.8 mph - 0.01 in   Overcast
11:12 AM 57.2 °F - 55.4 °F 94% 30.04 in 10.0 mi ENE 4.6 mph - N/A   Overcast
11:51 AM 60.1 °F - 57.0 °F 90% 30.01 in 10.0 mi East 6.9 mph - N/A   Mostly Cloudy
12:51 PM 64.0 °F - 54.0 °F 70% 29.98 in 10.0 mi SSE 8.1 mph - N/A   Mostly Cloudy
1:51 PM 64.0 °F - 55.9 °F 75% 29.95 in 10.0 mi SE 10.4 mph 26.5 mph 0.00 in   Overcast
3:43 PM 60.8 °F - 55.4 °F 82% 29.93 in 10.0 mi SE 15.0 mph 25.3 mph 0.00 in Rain Light Rain
4:27 PM 60.8 °F - 57.2 °F 88% 29.90 in 1.5 mi ESE 13.8 mph 23.0 mph 0.05 in Rain Rain
4:41 PM 59.0 °F - 57.2 °F 94% 29.90 in 2.5 mi ESE 11.5 mph 18.4 mph 0.08 in Rain Light Rain
4:51 PM 59.0 °F - 57.0 °F 93% 29.89 in 4.0 mi Variable 5.8 mph 21.9 mph 0.08 in Rain Light Rain
5:32 PM 60.8 °F - 57.2 °F 88% 29.87 in 2.5 mi SE 8.1 mph 17.3 mph 0.02 in Rain Rain
5:39 PM 59.0 °F - 57.2 °F 94% 29.87 in 4.0 mi SE 11.5 mph 17.3 mph 0.03 in Rain Light Rain
5:51 PM 59.0 °F - 57.0 °F 93% 29.86 in 3.0 mi SE 9.2 mph 19.6 mph 0.06 in Rain Light Rain
6:51 PM 60.1 °F - 57.9 °F 93% 29.81 in 3.0 mi SE 10.4 mph 21.9 mph 0.05 in Rain Rain
7:38 PM 60.8 °F - 59.0 °F 94% 29.79 in 3.0 mi SE 10.4 mph 23.0 mph 0.04 in Rain Light Rain
7:47 PM 60.8 °F - 59.0 °F 94% 29.79 in 2.5 mi SE 10.4 mph 23.0 mph 0.06 in Rain Rain
7:51 PM 61.0 °F - 60.1 °F 97% 29.78 in 2.5 mi SE 10.4 mph 19.6 mph 0.06 in Rain Light Rain
7:58 PM 60.8 °F - 60.8 °F 100% 29.78 in 4.0 mi SE 9.2 mph 17.3 mph 0.01 in Rain Light Rain
8:13 PM 62.6 °F - 60.8 °F 94% 29.77 in 2.5 mi SE 10.4 mph - 0.04 in Rain Rain
8:51 PM 63.0 °F - 62.1 °F 97% 29.74 in 2.5 mi SSE 17.3 mph 28.8 mph 0.21 in Rain Light Rain
8:58 PM 64.4 °F - 62.6 °F 94% 29.75 in 5.0 mi SSE 11.5 mph 28.8 mph 0.00 in Rain Light Rain
9:51 PM 63.0 °F - 62.1 °F 97% 29.74 in 3.0 mi South 11.5 mph 19.6 mph 0.00 in Rain Light Rain
10:03 PM 62.6 °F - 62.6 °F 100% 29.75 in 2.5 mi SSE 10.4 mph 16.1 mph 0.01 in Rain Light Rain
10:10 PM 62.6 °F - 62.6 °F 100% 29.76 in 3.0 mi SSE 9.2 mph - 0.01 in Rain Light Rain
10:18 PM 62.6 °F - 62.6 °F 100% 29.76 in 2.5 mi SSE 9.2 mph - 0.01 in Rain Light Rain
11:15 PM 62.6 °F - 62.6 °F 100% 29.76 in 1.5 mi SSE 8.1 mph - 0.00 in Rain Light Rain
11:51 PM 63.0 °F - 62.1 °F 97% 29.75 in 1.5 mi SSE 4.6 mph - 0.00 in   Overcast